Regional Weather Roundup
Issued by NWS

Home | Current Version | Previous Version | Graphics & Text | Print | Product List | Glossary On
Versions: 1 2 3 4 5 6 7 8 9 10 11 12 13 14 15 16 17 18 19 20 21 22 23 24 25 26 27 28 29 30 31 32 33 34 35 36 37 38 39 40 41 42 43 44 45 46 47 48 49 50
667
ASUS45 KCYS 040710
RWRWY

WYOMING REGIONAL WEATHER ROUNDUP
NATIONAL WEATHER SERVICE CHEYENNE WY
1200 AM MST SUN DEC 04 2016

NOTE:  "FAIR" INDICATES FEW OR NO CLOUDS BELOW 12,000 FEET
WITH NO SIGNIFICANT WEATHER AND/OR OBSTRUCTIONS TO VISIBILITY.

WYZ001-040800-
YELLOWSTONE NATIONAL PARK

CITY           SKY/WX    TMP DP  RH WIND       PRES   REMARKS
LK YELLOWSTONE   N/A     19  18  95 VRB7      30.02F WCI  10
W YELLOWSTONE  NOT AVBL

$$
WYZ002>013-054>058-071-098>099-040800-
NORTHERN WYOMING

CITY           SKY/WX    TMP DP  RH WIND       PRES   REMARKS
JACKSON        CLOUDY    27  21  80 S16       30.06F WCI  14
CODY           FAIR      34  14  43 W12G22    29.96F WCI  25
GREYBULL       FAIR      26  16  65 E5        29.98F WCI  20
WORLAND        FAIR      19  15  84 N3        29.98F
SHERIDAN       MOCLDY    35  14  42 W6        29.93S WCI  30
BUFFALO        FAIR      35   7  31 W7        29.93S WCI  29
GILLETTE       MOCLDY    31  18  58 W10       29.93S WCI  22
HULETT         PTSUNNY   30  23  74 SW8       29.92F WCI  23
NEWCASTLE      FAIR      28  21  74 NW3       29.95F

$$
WYZ014>020-022>026-101>103-040800-
CENTRAL WYOMING

CITY           SKY/WX    TMP DP  RH WIND       PRES   REMARKS
BIG PINEY      FAIR       5   3  91 CALM      30.10F
PINEDALE       FAIR      10  10 100 W6        30.11S WCI   1
DUBOIS         FAIR      21  10  63 NW18G26   29.96F WCI   6
LANDER         FAIR      20   6  55 W5        30.00S WCI  13
RIVERTON       FAIR      25  11  55 W9        29.99F WCI  15
CASPER         FAIR      25  12  58 SW15      29.99F WCI  13
DOUGLAS        FAIR      18  11  74 N6        29.99F WCI  10

$$
WYZ021-027>030-104>119-040800-
SOUTHERN WYOMING

CITY           SKY/WX    TMP DP  RH WIND       PRES   REMARKS
EVANSTON       MOCLDY    21  14  74 W14       30.18F WCI   8
FORT BRIDGER   CLOUDY    26  18  72 W15       30.19F WCI  13
ROCK SPRINGS   FAIR      22  14  71 W16       30.12F WCI   8
DIXON          CLOUDY    24  16  70 S8        30.18F WCI  15
RAWLINS        FAIR      19  12  74 W23G33    30.05S WCI   2
SARATOGA       FAIR      21  14  73 SW13      30.09F WCI   9
LARAMIE        FAIR      17   7  64 W15       30.02R WCI   2
CHEYENNE       FAIR      22   9  57 W8        30.01R WCI  12
TORRINGTON     FAIR      30  15  53 W14       30.01R WCI  19
PINE BLUFFS    FAIR      19  10  68 W9        30.01S WCI   9

$$




USA.gov is the U.S. government's official web portal to all federal, state and local government web resources and services.